Racecast

Maurice Saulsbury

Blazin Jaguars (CA) · 13-14 · Compare head to head

Athlete rating
Races 51
Seasons 2 2013 — 2014
Speed rating — all races

Track & Field

TF speed rating

2014 TF

Blazin Jaguars (CA) · Grade 13-14

Date Meet Event Result Place Rating Difficulty PR/SR Flags
2014-06-20 USATF Pacific Assoc. Junior Olympics (Top 8) 200m 24.97 8th · 4th on team -0.031
2014-06-20 USATF Pacific Assoc. Junior Olympics (Top 8) 100m 12.04 4th · 2nd on team -0.031
2014-06-20 USATF Pacific Assoc. Junior Olympics (Top 8) 100m 12.52 14th · 3rd on team -0.031
2014-06-20 USATF Pacific Assoc. Junior Olympics (Top 8) 200m 24.63 5th · 3rd on team -0.031
2014-05-31 Pacific Association Championships (PAC) 200m 24.15 7th · 4th on team -0.024
2014-05-31 Pacific Association Championships (PAC) 200m 23.85 5th · 3rd on team -0.024 ★PR SR
2014-05-31 Pacific Association Championships (PAC) 100m 11.9 4th · 3rd on team -0.024
2014-05-31 Pacific Association Championships (PAC) 100m 12.21 9th · 4th on team -0.024
2014-05-24 Central Valley Roadrunners 100m 11.85 1st · 1st on team -0.026
2014-05-24 Central Valley Roadrunners 200m 23.92 1st · 1st on team -0.026 PR SR
2014-05-24 Central Valley Roadrunners 100m 11.92 2nd · 2nd on team -0.026
2014-05-24 Central Valley Roadrunners 200m 24.03 2nd · 2nd on team -0.026
2014-04-26 Revolution Express TC 100m 11.7 2nd · 2nd on team -0.024
2014-04-12 Stocton Saints 100m 11.83 3rd · 1st on team -0.027
2014-04-12 Stocton Saints 200m 24.02 2nd · 1st on team -0.027 PR SR
2014-04-05 Sacramento Speed Showcase 200m 24.31 2nd · 1st on team -0.033 PR SR
2014-04-05 Sacramento Speed Showcase 100m 11.44 1st · 1st on team -0.033 ★PR SR
2014-03-29 East County Cheetahs TC 100m 12.26 2nd · 1st on team -0.017
2014-03-22 RPM 400m 1:00.84 11th · 3rd on team -0.012 ★PR SR
2014-03-22 RPM 100m 12.24 2nd · 2nd on team -0.012 SR

2013 TF

Big Valley TC (CA) · Grade 11-12

Date Meet Event Result Place Rating Difficulty PR/SR Flags
2013-07-12 Track City Classic 100m 14.06 20th · 2nd on team -0.035
2013-07-12 Track City Classic 100m 11.98 1st · 1st on team -0.035
2013-06-21 Pacific Association Junior Olympics (3-day) 200m 24.55 2nd · 2nd on team -0.034 PR SR
2013-06-21 Pacific Association Junior Olympics (3-day) 200m 24.46 1st · 1st on team -0.034 PR SR
2013-06-21 Pacific Association Junior Olympics (3-day) 100m 11.89 1st · 1st on team -0.034 PR SR
2013-06-21 Pacific Association Junior Olympics (3-day) 100m 12.01 2nd · 2nd on team -0.034
2013-06-08 Pacific Association Youth Championship (PAC) - 2-day meet 100m 12.22 2nd · 2nd on team -0.024
2013-06-08 Pacific Association Youth Championship (PAC) - 2-day meet 100m 12.15 1st · 1st on team -0.024
2013-06-08 Pacific Association Youth Championship (PAC) - 2-day meet 200m 28.15 7th · 2nd on team -0.024
2013-06-08 Pacific Association Youth Championship (PAC) - 2-day meet 200m 25.1 1st · 1st on team -0.024
2013-06-01 100 Black Men Tommie Smith 100m 12.18 1st · 1st on team -0.036
2013-06-01 100 Black Men Tommie Smith 100m 12.19 2nd · 2nd on team -0.036
2013-06-01 100 Black Men Tommie Smith 200m 24.91 1st · 1st on team -0.036
2013-05-18 3M Track Club 100m 12.24 2nd · 2nd on team -0.028 PR SR
2013-05-18 3M Track Club 200m 24.78 1st · 1st on team -0.028 PR SR
2013-05-18 3M Track Club 100m 12.14 1st · 1st on team -0.028 PR SR
2013-05-11 Classic Track Club Relays 100m 12.54 1st · 1st on team -0.011
2013-05-11 Classic Track Club Relays 200m 25.01 1st · 1st on team -0.011 PR SR
2013-05-04 Hercules / Running Rebels (2-day) 200m 25.47 1st · 1st on team -0.038
2013-05-04 Hercules / Running Rebels (2-day) 100m 12.38 2nd · 1st on team -0.038
2013-05-04 Hercules / Running Rebels (2-day) 100m 12.53 4th · 2nd on team -0.038
2013-04-27 Revolution Express Track Club 200m 25.49 1st · 1st on team -0.024
2013-04-27 Revolution Express Track Club 100m 12.47 2nd · 1st on team -0.024
2013-04-20 Shor / Sheppard Classic 200m 25.06 1st · 1st on team -0.022 PR SR
2013-04-20 Shor / Sheppard Classic 100m 12.36 1st · 1st on team -0.022 PR SR
2013-04-13 CA Track Club 100m 12.57 2nd · 1st on team -0.038
2013-04-13 CA Track Club 200m 26.16 2nd · 1st on team -0.038
2013-04-06 Sacramento Speed Showcase 200m 25.61 1st · 1st on team -0.031 PR SR
2013-04-06 Sacramento Speed Showcase 100m 12.86 2nd · 1st on team -0.031
2013-03-30 Stockton Saints 100m 12.49 1st · 1st on team -0.016 PR SR
2013-03-30 Stockton Saints 400m 1:03.8 2nd · 1st on team -0.016 PR SR